events-overview

Race the Bar 5K Presented by Senn Dunn Insurance - Series Race #2

 

Complete Overall Results

Lindley Park Filling Station & Sticks and Stones - Greensboro, NC 5/18/2013 03:00PM

** Results are for the private use of participants and are the Intellectual Property of Set Up Events. Unauthorized use of these results is prohibited.

Place Bib S Age Name City/State Time Pace DQ
1174M17Luke SumerfordNo City Given00:17:2400:05:36 
234M29Matthew DugginsJamestown NC00:20:5000:06:43 
3190M39Dragon GaydonJamestown NC00:20:5300:06:44 
4421M39John DeweyGreensboro NC00:21:0200:06:47 
583M25Mahan LeviAsheboro NC00:21:0800:06:49 
6193M42Dan PhillipsGreensboro NC00:21:3300:06:57 
7182M39Michael RainesWinston-Salem NC00:21:5100:07:02 
8391M23Alan MitchellGreensboro NC00:21:5700:07:04 
954M20Evan HarrisonSophia NC00:22:3800:07:17 
10135M36Andrew TappGreensboro NC00:22:4300:07:19 
11179M48Bo GeigerOak Ridge NC00:23:0200:07:25 
1264M39Jason TolbertAsheboro NC00:23:0500:07:26 
1389F25Mariel FeigenAsheboro NC00:23:2700:07:33 
14191M44James McSawleyWinston-Salem NC00:23:3700:07:37 
1528M60Eddie DayEast Bend NC00:23:5100:07:41 
16181F41Michele HoheiserHickory NC00:23:5400:07:42 
17184M41Douglas GaydonLiberty NC00:24:0300:07:45 
18400M32Brennan O'BrienClimax NC00:24:0800:07:46 
19133M28Jimmy StewartSophia NC00:24:1400:07:48 
2047F20Zaira GomezJamestown NC00:24:2200:07:51 
21158M31Miles BrownGreensboro NC00:24:3200:07:54 
2243F28Becca FrazierRoanoke VA00:24:3600:07:56 
23117M40Gregg PrinzoGreensboro NC00:24:5000:08:00 
24399M32Lucas FaukconnGreensboro NC00:24:5100:08:00 
2578M42Geoffrey LamkeWinston Salem NC00:24:5700:08:02 
26144M33Benjamin VanoverRandleman NC00:24:5700:08:02 
27125M47Greg SheppardGreensboro NC00:25:0600:08:05 
28180M42Andy McAfeeGreensboro NC00:25:4500:08:17 
2935F34Elizabeth KleinGreensboro NC00:26:0700:08:25 
30113M53Andy PhelpsJamestown NC00:26:1100:08:26 
PlaceBibSAgeNameCity/StateTimePaceDQ
31390M21Mark MitchellGreensboro NC00:26:1200:08:26 
3253M29Clinton HarrisonRandleman NC00:26:1800:08:28 
33124M29Sean ShanahanHigh Point NC00:26:2400:08:30 
34423M12Christian DeyohnNo City Given00:26:3000:08:32 
35380M52Tim FlemingGreensboro NC00:26:3700:08:34 
3698F53Marta MitchellGreensboro NC00:26:4600:08:37 
37157M24Taylor ZacharGreensboro NC00:26:4800:08:38 
3850M43Chris GosselinAsheboro NC00:26:4800:08:38 
39167F99Cecelia FogNo City Given00:26:4800:08:38 
40198M55Greg RobinsonAsheboro NC00:26:5300:08:40 
41156M27Doug WinnWinston Salem NC00:27:0500:08:43 
425F49Debbie AllisonHigh Point NC00:27:2600:08:50 
43177M31Chris BrowningGreensboro NC00:27:3400:08:53 
4410M45Keith AyscueGreensboro NC00:27:3600:08:53 
45109M25Ben PageGreensboro NC00:27:5700:09:00 
46192F40Melissa AndersonGreensboro NC00:28:0800:09:04 
474F35Alison SchottGreensboro NC00:28:2300:09:08 
48126F53Sherry RogowskiGreensboro NC00:28:2300:09:09 
4999F42Tara MitchellHigh Point NC00:28:3200:09:11 
50136F55Kathy TaylorHamptonville NC00:28:3200:09:11 
51404F40Jenni RomanoNo City Given00:28:3900:09:14 
5249M38Jason GoodmanGreensboro NC00:28:4200:09:15 
5374F11Katelin NierleSummerfield NC00:29:0300:09:21 
54108F40Donna NorrisGreensboro NC00:29:0300:09:21 
5573M30Greg KarpinskiGreensboro NC00:29:1200:09:24 
56171F35Devona DunnKernersville NC00:29:2400:09:28 
57118F54Suzette RedwineKernersville NC00:29:3000:09:30 
58403M41Pc RomanoNo City Given00:29:5000:09:36 
5922F34Mary ChavezGreensboro NC00:30:0100:09:40 
60119F34Robin PegramGreensboro NC00:30:2700:09:48 
61189M13Ryan GaydenJameston NC00:30:3300:09:50 
PlaceBibSAgeNameCity/StateTimePaceDQ
62309M52Johnny RedwineKernersville NC00:30:3500:09:51 
6327M50Kennedy DavidClemmons NC00:30:3800:09:52 
64111M49John PannellBurlington NC00:31:1300:10:03 
65146M34Jason WarnerHuntersville NC00:31:2600:10:07 
66178F31Amanda BrowningGreensboro NC00:31:4700:10:14 
6756M68Skip HaydenFairfield CT00:31:5200:10:16 
6842M27Jonathan FranklinNew Bern NC00:31:5300:10:16 
6980F25Lauren PowellCary NC00:31:5500:10:17 
7092M31Daniel McCoyGreensboro NC00:32:1700:10:24 
71416M11Jacob HossNo City Given00:32:2100:10:25 
7259M31Matt HruslinskiBurlington NC00:32:3100:10:28 
73183M35Coby WesleyNo City Given00:32:3100:10:28 
74107F24Nicole PageGreensboro NC00:32:3500:10:30 
75162F50Melanie LandacueGreensboro NC00:32:4400:10:32 
76140M54Thomas Keith BlackGreensboro NC00:32:4400:10:33 
77176M44Mark HermanCharlotte NC00:32:4500:10:33 
7863F47Jamie StoffelHigh Point NC00:32:4800:10:34 
79137M56Preston TaylorHamptonviille NC00:33:0500:10:39 
80186M11Jackson GaydonLiberty NC00:33:1400:10:42 
81422F49Beth MayerGreensboro NC00:33:1600:10:43 
8293F31Leah McCoyGreensboro NC00:33:2300:10:45 
83379F23Shannon SandiferNo City Given00:33:2300:10:45 
8495M37Ryan McHenryGreensboro NC00:33:3100:10:48 
8531F32Maria DickensonHigh Point NC00:33:3200:10:48 
86392F9Chloe TemplemanSummerfield NC00:33:4400:10:52 
8713M49Ken BoatmanGreensboro NC00:33:4800:10:53 
88185M37Charles FarrowGreensboro NC00:33:5000:10:54 
89418F60Carol BernstorfGreensboro NC00:34:0100:10:57 
90417M11Sam HossNo City Given00:34:0300:10:58 
91106M32Max NewbauerGibsonville NC00:34:1000:11:00 
9258M30Matthew HoganGreensboro NC00:34:1200:11:01 
PlaceBibSAgeNameCity/StateTimePaceDQ
93127F25Lynn ShieldsGreensboro NC00:34:1600:11:02 
94147M46Barry WarrenGreensboro NC00:34:2900:11:06 
95197M24Ebbie YazdaniWinston-Salem NC00:34:3000:11:07 
9662M53Bryan JamesGreensboro NC00:34:3200:11:07 
97175M29Andrew ZacharHigh Point NC00:34:4800:11:12 
98196F43Maragaret HoodGreensboro NC00:34:5300:11:14 
99143F27Sarah TurnerGreensboro NC00:35:0100:11:17 
10026F26Brittany DabbsGreensboro NC00:35:0100:11:17 
10141F38Jennifer FerrellGreensboro NC00:35:1000:11:19 
10260F51Martha Hughes - JamesGreensboro NC00:35:1000:11:20 
1036F26Amanda ShanahanHigh Point NC00:35:1000:11:20 
10448F31Carol GoodmanGreensboro NC00:35:1100:11:20 
105131F25Rachel StasBurlington NC00:35:1300:11:20 
10651M60Bruce GuariniSummefield NC00:35:1700:11:22 
10725M41Michael CunninghamGraham NC00:35:2300:11:24 
108413M8Andrew DoverNo City Given00:35:2900:11:26 
109409M49Gavin ReardonGreensboro NC00:35:3200:11:27 
1103F28Stephanie AlbrightSeagrove NC00:35:3600:11:28 
11132F44Caron DoverGreensboro NC00:35:3600:11:28 
112110F33Allison PalmadessaGreensboro NC00:35:4200:11:30 
11336F19Ellie RogowskiGreensboro NC00:35:4800:11:32 
114142M51Tom RogowskiGreensboro NC00:35:4900:11:32 
11585F36Lindsay SmithAdvance NC00:35:5300:11:33 
11644M36George MeisterGreensboro NC00:35:5400:11:34 
117405F42Meg WhelanGreensboro NC00:35:5600:11:34 
118406M39Tim WhelanGreensboro NC00:35:5700:11:35 
11911F24Jennifer BellGreensboro NC00:36:0000:11:35 
120154F28Kathryn WilliamsenGreensboro NC00:36:0300:11:37 
121153M29Chad WilliamsenGreensboro NC00:36:0400:11:37 
122152M8Will StoffelHigh Point NC00:36:1000:11:39 
12317M40Rob BromleyBurlington NC00:36:1900:11:42 
PlaceBibSAgeNameCity/StateTimePaceDQ
12487M34Philip MahoneyJamestown NC00:36:3500:11:47 
125199F30Kelly TealWhitsett NC00:36:4300:11:49 
126424M41Thomas DejohnGreenboro NC00:36:5400:11:53 
127414F10Isabel DoverNo City Given00:36:5400:11:53 
128397F35Rachael HortonGreensboro NC00:37:1200:11:59 
129419M6Brigden HayesNo City Given00:37:1200:11:59 
130420F39Chris HayesNo City Given00:37:1300:11:59 
131169F24Erin PearceNo City Given00:37:1900:12:01 
13246F32Georganne GlessnerGreensboro NC00:37:2100:12:02 
133194F11Isabel PhillipsGreensboro NC00:37:2400:12:03 
134164F9Isabel EgbertGreensboro NC00:37:3000:12:04 
13521F30Hailey CelinaGreensboro NC00:37:3000:12:05 
136188M52Shaukat KhanBurlington NC00:37:3900:12:07 
13779F42Kathleen LamkeWinston Salem NC00:37:4200:12:09 
13891F36April MayberryLexington NC00:37:4400:12:09 
13929F45Teresa DayeGraham NC00:37:5500:12:13 
1402F35Adrienne TolbertAsheboro NC00:38:0800:12:17 
141132M41Steven BlackGreensboro NC00:38:1100:12:18 
142160F47Pam BlackGreensboro NC00:38:1100:12:18 
14355F51Sonja HarrisonSophia NC00:38:3700:12:26 
14476F48Lisa KershnerJamestown NC00:38:4300:12:28 
145130F46Kathy SlomkaJamestown NC00:38:4500:12:29 
146408F13Morgan PollockNo City Given00:39:0600:12:36 
147407F42Janet PollockGreensboro NC00:39:1300:12:38 
148195M38Jason CarterNo City Given00:39:1900:12:40 
149159F43Rhea EgbertGreensboro NC00:39:2500:12:41 
150396M42Karl HortonGreensboro NC00:39:2600:12:42 
151172M51Dennis VassReidsville NC00:39:3200:12:44 
15239F52Tammy EubanksGreensboro NC00:39:3200:12:44 
15371F47Julie FincannonLake View SC00:39:3400:12:45 
15461F57Jackie IrelandHigh Point NC00:39:3500:12:45 
PlaceBibSAgeNameCity/StateTimePaceDQ
15545F50Anne GlennGreensboro NC00:39:4300:12:47 
156102F28Liza MooreGreensboro NC00:40:3000:13:03 
1579F30Ashley OrrWinston Salem NC00:40:5000:13:09 
15882M47Dave LaycockKernersville NC00:41:1300:13:16 
159121M60Scott SandiferWinston-Salem NC00:41:1700:13:18 
160148M13Griffin WarrenGreensboro NC00:41:2700:13:21 
16177F23Kaitlyn LackeyClemmons NC00:41:3400:13:23 
162187M7Britain GaydonLiberty NC00:41:4700:13:27 
16394F24Lauren McDonaldRandleman NC00:41:5600:13:30 
164116M48Jamey PressonGreensboro NC00:42:3400:13:43 
165114F23Abigail PhillipsGreensboro NC00:42:4800:13:47 
16667F27Jill JeffordsGreensboro NC00:43:5000:14:07 
16757M75John HaydockGreensboro NC00:43:5400:14:08 
168394F32Samantha AbsberGreensboro NC00:44:2200:14:17 
169134F29Emily StokesMocksville NC00:44:3200:14:20 
170149F42Katrina WarrenGreensboro NC00:45:0600:14:31 
17169M34Jonathan RaymerGreensboro NC00:45:2600:14:38 
172103F54Peggy MurphyGreensboro NC00:45:3400:14:40 
17338F33Eri RaymerGreensboro NC00:45:3700:14:41 
17496F54Melissa MichosGreensboro NC00:46:3600:15:00 
17540F24Meghan FarleyHigh Point NC00:48:1600:15:32 
176104F24Caitlin MyersHigh Point NC00:48:1600:15:33 
17784M52Paul LindenGreensboro NC00:48:2400:15:35 
17888F50Maria LindenGreensboro NC00:48:2500:15:35 
179389F54Carol McCanleyWhitsett NC00:48:3600:15:39 
180120M46Ron StoffelHigh Point NC00:48:4400:15:42 
181151F21Victoria WilkinsonGreensboro NC00:49:4400:16:01 
182388F31Carrie HoverstonNo City Given00:49:5900:16:06 
183170F24Hannah HopeNo City Given00:50:0200:16:06 
184387F52Lisa RobertsonWhitsett NC00:50:0500:16:08 
185173F56Wanda CecilNo City Given00:50:4900:16:22 
PlaceBibSAgeNameCity/StateTimePaceDQ
18681F53Angie LaycockKernersville NC00:50:5200:16:23 
187141M69Tom FincannonGreensboro NC00:51:4000:16:38 
18816F37Beth BromleyBurlington NC00:51:4100:16:39 
18918F47Angela BrooksKing NC00:52:3600:16:56 
190168F37Sharon BaconNo City Given00:52:3700:16:56 
19165F46Jennifer PreischGreensboro NC00:53:0700:17:06 
19220F45Carole AlbrightGreensboro NC00:53:0700:17:06 
193401F52Valerie EdsonGreensboro NC00:53:2000:17:10 
194139M50Tim TempletonGreensboro NC00:53:2800:17:13 
195138F48Robin TemplemanGreensboro NC00:54:4600:17:38 
196393F23Brianna PriceNo City Given00:54:4700:17:38 
19770F35Laura JonesMadison NC00:54:4700:17:38 
198161F34Aoeesah BakerGreensboro NC00:55:5600:18:00 
19924F37Hailey ChristieGreensboro NC00:58:1400:18:45 
200145F31Cady WarnerHuntersville NC01:00:0600:19:21 
201105F31Adriane NewbauerGibsonville NC01:00:0600:19:21 
20272F44Karon MorrisonGreensboro NC01:00:3400:19:30 
20390M68Marvin BareGreensboro NC01:00:3700:19:31 

** Results are for the private use of participants and are the Intellectual Property of Set Up Events. Unauthorized use of these results is prohibited.